NOAA 16 DEB, 41147

Orbit data source: Space-Track

NOAA 16 DEB, 41147 is space debris in SSO originally from a launch on Thu, 21 Sep 2000 UTC launched from the Air Force Western Test Range (AFWTR). Debris objects in space refer to the collection of defunct objects orbiting the Earth. Examples of debris include non-operational satellites, rocket bodies, and fragments generated from explosions, collisions, or faulty payload assembly.

Loading next visibility...
Identifier
41147, 2000-055CE
Orbit
SSO
Country
Flag of USUS
Related business
Manufacturer
Unknown
Mission
Spacecraft
Bus & Motor
Unknown
Mass
Unknown
Launch date (UTC)
2000-09-21 (25 years ago)
Launch vehicle
Unknown
Launch site
Air Force Western Test Range (AFWTR)
Object type
Payload
Rocket body
Debris
Shape & HBR
Unknown shape, 0.1 m
Radar Cross Section
Small (<0.1 m²)

Expand to show TLE details & history
Last TLE update: 7 hours ago

TLE from 7 hours ago
0 NOAA 16 DEB
1 41147U 00055CE  25293.55311745  .00008372  00000-0  43314-2 0  9996
2 41147  98.9439 329.3742 0067258  23.7125 336.7123 14.13993678504677
Epoch: 2025-10-20T13:16Z
TLE epoch observation values (Epoch: 2025-10-20T13:16:29.347Z)
Latitude
0.00002°
Longitude
100.99814°
Altitude
804.051 km
Speed
7.474 km/s
True Right ascension
21h 57m 29s
True Declination
0° 00' 00"
Sunlit
Object was in full shadow at epoch
Visualization orbit readout
Latitude
Unknown
Longitude
Unknown
Altitude
Unknown
Speed
Unknown
Apparent Right ascension
Unknown
Apparent Declination
Unknown
Sunlit
N/A
Visualization observer readout
Local Sidereal Time
15:25:49
Azimuth
Unknown
Elevation
Unknown
Doppler factor
Unknown
Orbital elements
Apogee altitude
891.483 km
Perigee altitude
794.348 km
Semi-major axis
7,221.052 km
Eccentricity
0.00673
Inclination
98.9439°
RAAN
329.3742°
Arg. of periapsis
23.7125°
True anomaly
336.40523°
Mean anomaly
336.7123°
Eccentric anomaly
336.559°
Mean motion
3.53706 °/min
Orbital period
101.78 mins
BSTAR
0.0043314
Loading maneuver chart data...
Computing Atmospheric mass density...
Loading historical data...
Loading historical data...
Loading historical data...
Loading historical data...
Loading historical data...
Loading historical data...
Loading historical data...

Documentation

Showing up to 5 results
|